Tracking 31028 objects as of 17-Jul-2025
HD Live streaming from Space Station
objects crossing your sky now

SL-14 R/B

Track SL-14 R/B now!
10-day predictions
SL-14 R/B is classified as:


NORAD ID: 14820
Int'l Code: 1984-027B
Perigee: 605.3 km
Apogee: 632.0 km
Inclination: 82.5 °
Period: 96.9 minutes
Semi major axis: 6989 km
RCS: 3.863 m2 (large)
Launch date: March 15, 1984
Source: Commonwealth of Independent States (former USSR) (CIS)
Launch site: PLESETSK MISSILE AND SPACE COMPLEX (PKMTR)

Note: This is a ROCKET BODY
Your satellite tracking list
Your tracking list is empty




NASA's NSSDC Master Catalog

Two Line Element Set (TLE):
1 14820U 84027B   25198.18948939  .00000365  00000-0  39125-4 0  9990
2 14820  82.5424 105.8299 0019081  37.3749 322.8790 14.85668268212660
Source of the keplerian elements: AFSPC